Location: Linton
(52.0940°N, 0.2850°E)
Time: 08:30:36
(UTC+00:00)

ISS - Pass Details

Date: 14 November 2017
Orbit: 402 x 407 km, 51.6° (Epoch: 19 November)

Event Time Altitude Azimuth Distance (km) Brightness Sun altitude
Exits shadow 04:45:24 31° 141° (SE) 736 -2.2 -23.2°
Drops below altitude 10° 04:47:21 10° 123° (ESE) 1,453 -0.3 -22.9°
Sets 04:49:27 0° 118° (ESE) 2,310 1.1 -22.5°
